TIME,DELAY(SENSOR),PRES,OXYGEN,RAWTEMP,T(OPTODE),TCPHASE,FLUOR,BETA(BETA700),BETA(BETA412),BETA(BETA440),CDOM,C(CSC),ED(ED411.90),ED(ED443.80),ED(ED489.40),ED(ED554.70),LU(LU412.20),LU(LU443.80),LU(LU489.40),LU(LU555.00),COMP,TILTX,TILTY,CHECK
1352325749,5806,851.6099853515625000,164.3816986083984400,407.8782958984375000,10.3624200820922850,38.7675781250000000,53,102,63,63,70,13639,2146961508,2147517961,2147285732,2147504402,2147088466,2146932406,2147698587,2147123264,825,-1,8,48086
1352329345,5804,964.5900268554688000,186.1441040039062500,482.4403076171875000,8.0732603073120120,38.4813499450683600,53,102,64,63,70,13637,2146963346,2147517476,2147293001,2147517184,2147094720,2146928576,2147715337,2147122121,1091,-1,8,23751
1352332945,5804,979.4699707031250000,196.5110931396484400,492.9205932617187500,7.7489600181579590,37.9929695129394500,52,99,63,63,70,13634,2146961874,2147517257,2147294628,2147517851,2147090651,2146926582,2147711707,2147120466,3489,-1,8,52233
1352336545,5809,982.5999755859375000,196.8775939941406200,494.3288879394531000,7.7053279876708980,37.9944610595703100,53,100,64,62,70,13636,2146963986,2147517092,2147293531,2147517577,2147092324,2146925312,2147717248,2147122038,98,-1,8,33272
1352340145,5806,984.4600219726562000,197.8484954833984400,495.5335998535156000,7.6679940223693850,37.9550590515136700,52,98,64,62,70,13619,2146965549,2147517869,2147294061,2147518784,2147090633,2146927305,2147718070,2147121682,115,-1,8,32369
1352343745,5804,995.7600097656250000,198.8184051513672000,495.5010986328125000,7.6690011024475100,37.8941917419433600,52,99,64,62,70,13617,2146964690,2147516406,2147295561,2147517257,2147089709,2146926738,2147716909,2147123629,3287,-1,8,60031
1352347345,5804,998.4299926757812000,197.4225006103515600,494.9005126953125000,7.6876139640808105,37.9700508117675800,53,99,64,63,70,13615,2146964178,2147518838,2147293961,2147517988,2147091730,2146927085,2147716187,2147119817,3480,-1,8,36734
1352350945,5804,995.2399902343750000,197.4197998046875000,495.6856079101562500,7.6632809638977050,37.9839210510253900,52,101,64,63,70,13617,2146965220,2147519396,2147294125,2147516781,2147091309,2146922532,2147716726,2147121152,3171,-1,8,9729
1352354545,5808,994.8300170898438000,200.4803924560547000,497.6886901855469000,7.6011829376220700,37.8293609619140600,52,101,64,62,71,13616,2146965385,2147517266,2147294500,2147519625,2147092406,2146925979,2147714605,2147121627,3332,-1,8,28344
1352358145,5805,988.1599731445312000,200.3029022216797000,499.0130004882812500,7.5601110458374020,37.8628997802734400,53,102,64,64,71,13601,2146963392,2147516681,2147298002,2147519350,2147087862,2146923849,2147717302,2147122633,3142,0,8,3479
1352361745,5808,992.0900268554688000,201.0948944091797000,499.7583007812500000,7.5369930267333980,37.8268318176269500,52,102,62,62,71,13615,2146965952,2147519085,2147293732,2147519936,2147091136,2146925211,2147718537,2147120777,489,-1,8,40492
1352365345,5807,991.5900268554688000,200.6313018798828000,499.4418945312500000,7.5468068122863770,37.8500099182128900,52,100,64,62,71,13613,2146966939,2147518582,2147295122,2147519917,2147090486,2146926253,2147716763,2147118473,3153,-1,8,45548
1352368945,5804,990.1900024414062000,202.5039978027343800,500.7815856933594000,7.5052428245544430,37.7585601806640600,52,100,64,63,70,13616,2146962733,2147516726,2147296411,2147518061,2147093632,2146926345,2147717513,2147124845,3305,-1,8,27535
1352372545,5805,992.7299804687500000,202.0877990722656200,501.1068115234375000,7.4951519966125490,37.7907104492187500,53,116,64,64,70,13612,2146964580,2147516388,2147294226,2147519396,2147091510,2146929261,2147716233,2147123446,3328,-1,8,56083
1352376145,5805,991.8099975585938000,202.4906005859375000,501.1494140625000000,7.4938302040100100,37.7658500671386700,51,99,63,62,71,13612,2146960832,2147519323,2147293522,2147518720,2147091949,2146921892,2147717467,2147118134,3335,-1,8,23995
1352379745,5806,995.9099731445312000,201.9888000488281200,499.5762023925781000,7.5426402091979980,37.7696609497070300,53,102,64,62,70,13613,2146962267,2147517449,2147299748,2147518756,2147091894,2146923574,2147716562,2147123373,2905,-1,8,45587
1352383345,5806,995.8900146484375000,201.8374023437500000,500.6506958007812500,7.5093050003051760,37.7970314025878900,52,123,63,63,70,13609,2146969536,2147516507,2147297572,2147519003,2147089325,2146920000,2147718628,2147123318,3515,-1,8,2799
1352386945,5806,996.9000244140625000,200.0458984375000000,499.6358032226562500,7.5407919883728030,37.8901290893554700,52,101,63,63,70,13606,2146965202,2147517723,2147296859,2147519149,2147088749,2146923062,2147712612,2147124269,3262,-1,8,18037
1352390545,5807,998.7299804687500000,200.3712005615234400,499.8135070800781000,7.5352778434753420,37.8725700378418000,52,101,66,62,70,13597,2146961197,2147520256,2147297536,2147517010,2147091181,2146923584,2147717577,2147122166,3163,-1,8,12186
1352394145,5805,997.3099975585938000,200.5664978027343800,499.7727966308594000,7.5365409851074220,37.8597412109375000,53,100,64,63,70,13604,2146965129,2147517805,2147298505,2147517824,2147089746,2146918592,2147716827,2147125677,3222,-1,8,27847
1352397745,5804,995.4500122070312000,201.0615997314453000,500.5014038085937500,7.5139369964599610,37.8426208496093750,53,100,64,62,70,13605,2146962989,2147520082,2147296365,2147519360,2147091437,2146926345,2147721819,2147121700,3346,-1,8,36857
1352401345,5805,998.5300292968750000,202.1726989746093800,501.1217956542969000,7.4946870803833010,37.7849006652832000,52,100,64,62,71,13565,2146962267,2147519515,2147296795,2147519104,2147087552,2146918875,2147722249,2147120923,3348,-1,8,1783
1352404945,5809,994.8900146484375000,201.7891998291015600,501.5006103515625000,7.4829311370849610,37.8156509399414060,52,99,65,63,70,13560,2146962349,2147517494,2147295552,2147520365,2147091949,2146916809,2147719296,2147121929,476,-1,8,62823
1352408545,5805,999.6400146484375000,201.3921051025390600,501.3951110839844000,7.4862060546875000,37.8373908996582000,52,100,62,63,70,13560,2146964992,2147518491,2147294930,2147519414,2147092653,2146925193,2147718070,2147124242,3439,-1,8,26397
1352412145,5810,999.7399902343750000,201.2171936035156200,501.0704040527344000,7.4962811470031740,37.8432807922363300,52,102,64,62,70,13559,2146963218,2147520996,2147293933,2147518592,2147089444,2146923565,2147718848,2147121069,63,0,8,20304
1352415745,5808,998.0900268554688000,201.2434997558593800,501.6068115234375000,7.4796347618103030,37.8508415222168000,51,100,63,63,70,13559,2146961225,2147519030,2147296978,2147522386,2147094491,2146925933,2147718912,2147124269,640,0,8,59478
1352419345,5802,997.1099853515625000,203.0110015869140600,502.2273864746094000,7.4603738784790040,37.7531509399414060,52,99,63,63,70,13554,2146960896,2147523337,2147295561,2147519250,2147090697,2146919232,2147718546,2147118555,3351,-1,8,48882
1352422945,5807,995.3200073242188000,204.0092010498047000,502.9367980957031000,7.4383540153503420,37.7051391601562500,53,100,64,62,71,13557,2146961115,2147515172,2147294070,2147516580,2147092854,2146923300,2147717833,2147123190,3231,-1,8,21588
1352426545,5807,1000.6900024414062000,203.9810943603515600,502.7829895019531000,7.4431300163269040,37.7041091918945300,52,101,63,62,70,13554,2146964964,2147518957,2147294400,2147519707,2147089014,2146926921,2147720237,2147118765,3377,-1,8,34298
1352430145,5805,999.2600097656250000,203.3791046142578000,501.9433898925781000,7.4691901206970215,37.7265892028808600,52,103,64,62,70,13556,2146966189,2147518674,2147296146,2147519049,2147090285,2146919286,2147720237,2147120630,2987,-1,8,30487
1352433745,5808,1003.5999755859375000,203.2846069335937500,501.8898010253906000,7.4708538055419920,37.7313194274902340,52,102,63,62,70,13553,2146966884,2147517476,2147294208,2147519597,2147091108,2146922029,2147722212,2147121444,2993,-1,8,17243
1352437345,5804,1002.3300170898438000,201.0982971191406200,500.5736083984375000,7.5116977691650390,37.8411712646484400,52,104,62,63,70,13554,2146962779,2147521846,2147295122,2147519350,2147092909,2146926601,2147722761,2147122358,3138,-1,8,3580
1352440945,5803,1003.2500000000000000,201.3083953857422000,500.8469848632812500,7.5032138824462890,37.8336296081543000,52,103,63,63,70,13552,2146964836,2147519387,2147295497,2147522852,2147089453,2146922560,2147717165,2147119085,3099,-1,8,41250
1352444545,5805,1001.5100097656250000,201.6562957763672000,501.7167053222656000,7.4762258529663090,37.8269195556640600,52,100,62,63,69,13550,2146962450,2147520429,2147293952,2147517056,2147090221,2146921517,2147719177,2147120054,3379,-1,8,8548
1352448145,5805,1001.0900268554688000,203.0583038330078000,502.0614013671875000,7.4655280113220215,37.7475700378418000,52,100,63,63,70,13546,2146966409,2147516672,2147295104,2147519579,2147091821,2146921252,2147719424,2147121938,3474,-1,8,63534
1352451745,5809,998.5300292968750000,203.8280029296875000,502.8750915527344000,7.4402689933776855,37.7153892517089840,52,109,65,62,70,13545,2146964150,2147520137,2147297380,2147515949,2147091181,2146920338,2147720859,2147121170,35,0,8,55777
1352455345,5805,998.8200073242188000,202.5868988037109400,504.4518127441406000,7.3913140296936035,37.8177413940429700,52,101,63,63,70,13503,2146965750,2147518893,2147297133,2147518528,2147088173,2146923364,2147719030,2147124315,157,0,8,14245
1352458945,5806,996.1099853515625000,205.0090942382812500,504.9811096191406000,7.3748750686645510,37.6802101135253900,52,100,63,62,70,13543,2146963611,2147516873,2147296009,2147519378,2147090011,2146923803,2147716461,2147122870,58,0,8,36899
1352462545,5806,1001.0000000000000000,204.7048034667968800,504.4079895019531000,7.3926749229431150,37.6885414123535160,52,102,64,63,71,13548,2146964324,2147518509,2147296091,2147518957,2147092525,2146919936,2147718921,2147124452,3294,-1,8,45791
1352466145,5808,1004.6099853515625000,203.7736968994140600,502.4880065917969000,7.4522848129272460,37.7118682861328100,53,103,65,62,70,13542,2146963776,2147519981,2147295561,2147518738,2147091556,2146920713,2147714688,2147121901,404,-1,8,52947
1352469656,5804,1005.0300292968750000,202.1493988037109400,501.8507995605469000,7.4720621109008790,37.7994689941406250,52,100,64,62,70,13589,2146965019,2147519936,2147297014,2147518089,2147093878,2146924333,2147720630,2147122221,107,-1,8,26611
